CEB1024 RPLL-RPVI

Flight info

Callsign CEB1024
Flight time 0h 46m
Altitude 33000
Route VERDE4V VERDE W24 TAPER B472 LAMBO LAMBO2N
Aircraft B738/M-SDE2E3FGHIRWXY/LB1

Departure

Time 2026-05-07 14:10
Airport Ninoy Aquino International Airport (RPLL)

Arrival

Time 2026-05-07 14:56
Airport Iloilo International Airport (RPVI)
Time Latitude Longitude Altitude Speed Heading
2026-05-07 13:38 14.52241 121.00950 83 ft 0 kts 44°
2026-05-07 14:01 14.52238 121.00946 83 ft 2 kts 44°
2026-05-07 14:01 14.52227 121.00935 83 ft 2 kts 44°
2026-05-07 14:01 14.52216 121.00925 83 ft 2 kts 44°
2026-05-07 14:02 14.52206 121.00914 83 ft 2 kts 45°
2026-05-07 14:02 14.52195 121.00903 83 ft 2 kts 44°
2026-05-07 14:02 14.52185 121.00893 83 ft 1 kts 44°
2026-05-07 14:02 14.52177 121.00885 83 ft 2 kts 31°
2026-05-07 14:03 14.52163 121.00880 83 ft 2 kts
2026-05-07 14:03 14.52147 121.00881 83 ft 2 kts 341°
2026-05-07 14:03 14.52135 121.00888 83 ft 1 kts 319°
2026-05-07 14:03 14.52130 121.00893 83 ft 1 kts 313°
2026-05-07 14:04 14.52129 121.00894 83 ft 0 kts 314°
2026-05-07 14:06 14.52129 121.00893 83 ft 0 kts 314°
2026-05-07 14:06 14.52143 121.00879 83 ft 4 kts 314°
2026-05-07 14:07 14.52174 121.00846 83 ft 7 kts 315°
2026-05-07 14:07 14.52220 121.00800 83 ft 9 kts 315°
2026-05-07 14:07 14.52266 121.00753 83 ft 9 kts 315°
2026-05-07 14:07 14.52321 121.00697 83 ft 12 kts 315°
2026-05-07 14:08 14.52390 121.00625 83 ft 15 kts 314°
2026-05-07 14:08 14.52463 121.00549 83 ft 14 kts 315°
2026-05-07 14:08 14.52533 121.00477 83 ft 14 kts 308°
2026-05-07 14:08 14.52545 121.00386 83 ft 13 kts 267°
2026-05-07 14:09 14.52541 121.00305 83 ft 11 kts 267°
2026-05-07 14:09 14.52521 121.00247 83 ft 5 kts 199°
2026-05-07 14:09 14.52483 121.00275 83 ft 9 kts 128°
2026-05-07 14:09 14.52389 121.00378 83 ft 49 kts 135°
2026-05-07 14:10 14.51927 121.00855 83 ft 136 kts 136°
2026-05-07 14:10 14.51091 121.01712 348 ft 185 kts 134°
2026-05-07 14:10 14.49925 121.02998 1758 ft 189 kts 127°
2026-05-07 14:10 14.49390 121.03657 2490 ft 179 kts 122°
2026-05-07 14:11 14.48790 121.04763 3136 ft 183 kts 111°
2026-05-07 14:11 14.48271 121.06024 3073 ft 193 kts 110°
2026-05-07 14:11 14.47752 121.07291 2943 ft 186 kts 110°
2026-05-07 14:11 14.47200 121.08463 2907 ft 191 kts 127°
2026-05-07 14:12 14.45953 121.09209 3422 ft 223 kts 171°
2026-05-07 14:12 14.44382 121.08903 4134 ft 246 kts 210°
2026-05-07 14:12 14.43174 121.07602 4889 ft 262 kts 239°
2026-05-07 14:12 14.42278 121.05885 5651 ft 278 kts 240°
2026-05-07 14:13 14.41281 121.04117 6372 ft 294 kts 237°
2026-05-07 14:13 14.39898 121.02537 7339 ft 298 kts 212°
2026-05-07 14:13 14.37983 121.01801 8299 ft 296 kts 182°
2026-05-07 14:13 14.35942 121.01857 9304 ft 295 kts 170°
2026-05-07 14:14 14.33892 121.02108 10236 ft 298 kts 170°
2026-05-07 14:14 14.31780 121.02305 10872 ft 314 kts 173°
2026-05-07 14:14 14.29540 121.02409 11498 ft 330 kts 176°
2026-05-07 14:14 14.27153 121.02452 12054 ft 345 kts 177°
2026-05-07 14:15 14.24686 121.02469 12549 ft 361 kts 178°
2026-05-07 14:15 14.22133 121.02480 13281 ft 366 kts 178°
2026-05-07 14:15 14.19558 121.02494 14026 ft 371 kts 178°
2026-05-07 14:15 14.16950 121.02513 14763 ft 376 kts 178°
2026-05-07 14:16 14.14287 121.02536 15447 ft 382 kts 178°
2026-05-07 14:16 14.11606 121.02561 16100 ft 387 kts 178°
2026-05-07 14:16 14.08872 121.02588 16752 ft 392 kts 178°
2026-05-07 14:16 14.06114 121.02616 17363 ft 398 kts 178°
2026-05-07 14:17 14.03339 121.02645 18016 ft 402 kts 178°
2026-05-07 14:17 14.00480 121.02674 18651 ft 406 kts 178°
2026-05-07 14:17 13.97606 121.02702 19313 ft 410 kts 178°
2026-05-07 14:17 13.94741 121.02728 19944 ft 413 kts 178°
2026-05-07 14:18 13.91857 121.02756 20556 ft 417 kts 178°
2026-05-07 14:18 13.88917 121.02786 21177 ft 420 kts 178°
2026-05-07 14:18 13.85923 121.02815 21760 ft 424 kts 178°
2026-05-07 14:18 13.82957 121.02844 22346 ft 427 kts 178°
2026-05-07 14:19 13.79984 121.02874 22876 ft 431 kts 178°
2026-05-07 14:19 13.76926 121.02905 23435 ft 435 kts 179°
2026-05-07 14:19 13.73905 121.02935 23947 ft 439 kts 179°
2026-05-07 14:19 13.70801 121.02966 24466 ft 443 kts 179°
2026-05-07 14:20 13.67724 121.02996 25012 ft 446 kts 179°
2026-05-07 14:20 13.64575 121.03027 25541 ft 448 kts 179°
2026-05-07 14:20 13.61442 121.03057 26028 ft 452 kts 179°
2026-05-07 14:20 13.58267 121.03088 26507 ft 456 kts 179°
2026-05-07 14:21 13.55034 121.03180 26982 ft 459 kts 176°
2026-05-07 14:21 13.51888 121.03603 27440 ft 462 kts 168°
2026-05-07 14:21 13.48767 121.04537 27860 ft 466 kts 158°
2026-05-07 14:21 13.45819 121.05967 28344 ft 468 kts 150°
2026-05-07 14:22 13.42098 121.08354 28990 ft 471 kts 146°
2026-05-07 14:22 13.40306 121.09642 29545 ft 466 kts 144°
2026-05-07 14:22 13.37692 121.11585 30338 ft 459 kts 144°
2026-05-07 14:22 13.35123 121.13518 30944 ft 457 kts 145°
2026-05-07 14:23 13.32545 121.15442 31568 ft 454 kts 145°
2026-05-07 14:23 13.30004 121.17309 32198 ft 450 kts 146°
2026-05-07 14:23 13.27421 121.19177 32814 ft 447 kts 147°
2026-05-07 14:23 13.24838 121.21021 32923 ft 453 kts 147°
2026-05-07 14:24 13.22227 121.22869 32918 ft 452 kts 147°
2026-05-07 14:24 13.17008 121.26544 32906 ft 446 kts 147°
2026-05-07 14:25 13.11885 121.30136 32914 ft 447 kts 148°
2026-05-07 14:25 13.06681 121.33782 32916 ft 448 kts 148°
2026-05-07 14:26 13.01496 121.37412 32915 ft 446 kts 148°
2026-05-07 14:26 12.96344 121.41016 32906 ft 446 kts 148°
2026-05-07 14:27 12.91195 121.44614 32893 ft 446 kts 148°
2026-05-07 14:27 12.86051 121.48210 32892 ft 446 kts 148°
2026-05-07 14:28 12.80874 121.51824 32877 ft 447 kts 148°
2026-05-07 14:28 12.75709 121.55430 32877 ft 447 kts 148°
2026-05-07 14:29 12.70494 121.59070 32869 ft 448 kts 147°
2026-05-07 14:29 12.65322 121.62679 32869 ft 448 kts 147°
2026-05-07 14:30 12.60142 121.66290 32870 ft 447 kts 148°
2026-05-07 14:30 12.54934 121.69920 32868 ft 447 kts 148°
2026-05-07 14:31 12.49781 121.73508 32866 ft 448 kts 148°
2026-05-07 14:31 12.44582 121.77127 32865 ft 449 kts 148°
2026-05-07 14:32 12.39356 121.80755 32864 ft 449 kts 148°
2026-05-07 14:32 12.33956 121.83986 32863 ft 447 kts 155°
2026-05-07 14:33 12.28234 121.86585 32859 ft 445 kts 159°
2026-05-07 14:33 12.22477 121.89011 32850 ft 445 kts 159°
2026-05-07 14:34 12.16718 121.91448 32847 ft 445 kts 159°
2026-05-07 14:34 12.10949 121.93922 32846 ft 445 kts 158°
2026-05-07 14:35 12.05249 121.96390 32425 ft 439 kts 158°
2026-05-07 14:35 12.02436 121.97613 31950 ft 437 kts 158°
2026-05-07 14:35 11.99633 121.98834 31306 ft 437 kts 158°
2026-05-07 14:35 11.96804 122.00065 30554 ft 439 kts 158°
2026-05-07 14:36 11.93986 122.01292 29996 ft 438 kts 158°
2026-05-07 14:36 11.91190 122.02509 29419 ft 441 kts 158°
2026-05-07 14:36 11.88307 122.03763 28782 ft 444 kts 158°
2026-05-07 14:36 11.85466 122.04998 28144 ft 442 kts 158°
2026-05-07 14:37 11.82642 122.06227 27511 ft 440 kts 157°
2026-05-07 14:37 11.77297 122.08552 26317 ft 436 kts 157°
2026-05-07 14:37 11.74514 122.09762 25683 ft 434 kts 156°
2026-05-07 14:38 11.71695 122.10987 25043 ft 432 kts 156°
2026-05-07 14:38 11.68954 122.12177 24418 ft 429 kts 156°
2026-05-07 14:38 11.66196 122.13375 23794 ft 427 kts 156°
2026-05-07 14:38 11.63467 122.14561 23173 ft 424 kts 155°
2026-05-07 14:39 11.60742 122.15744 22551 ft 422 kts 155°
2026-05-07 14:39 11.58040 122.16917 21930 ft 419 kts 155°
2026-05-07 14:39 11.55346 122.18086 21315 ft 417 kts 155°
2026-05-07 14:39 11.52651 122.19256 20696 ft 415 kts 154°
2026-05-07 14:40 11.50008 122.20403 20085 ft 412 kts 154°
2026-05-07 14:40 11.47366 122.21549 19466 ft 410 kts 154°
2026-05-07 14:40 11.44729 122.22693 18843 ft 407 kts 154°
2026-05-07 14:40 11.42121 122.23825 18236 ft 404 kts 154°
2026-05-07 14:41 11.39500 122.24963 17617 ft 402 kts 154°
2026-05-07 14:41 11.36941 122.26076 17017 ft 399 kts 154°
2026-05-07 14:41 11.34374 122.27191 16403 ft 396 kts 154°
2026-05-07 14:41 11.31827 122.28296 15796 ft 393 kts 154°
2026-05-07 14:42 11.29343 122.29373 15193 ft 391 kts 154°
2026-05-07 14:42 11.26827 122.30465 14574 ft 388 kts 154°
2026-05-07 14:42 11.24355 122.31537 13966 ft 385 kts 154°
2026-05-07 14:42 11.21894 122.32604 13364 ft 382 kts 154°
2026-05-07 14:43 11.19461 122.33656 12914 ft 375 kts 154°
2026-05-07 14:43 11.17092 122.34667 12746 ft 360 kts 156°
2026-05-07 14:43 11.14718 122.35466 12496 ft 350 kts 162°
2026-05-07 14:43 11.12337 122.36027 12006 ft 349 kts 166°
2026-05-07 14:44 11.09966 122.36476 11528 ft 347 kts 167°
2026-05-07 14:44 11.07593 122.36899 11058 ft 343 kts 167°
2026-05-07 14:44 11.05246 122.37325 10606 ft 339 kts 166°
2026-05-07 14:44 11.02910 122.37768 10156 ft 336 kts 165°
2026-05-07 14:45 11.00661 122.38208 9900 ft 326 kts 165°
2026-05-07 14:45 10.98422 122.38652 9610 ft 318 kts 165°
2026-05-07 14:45 10.96237 122.39092 9131 ft 317 kts 165°
2026-05-07 14:45 10.94058 122.39457 8680 ft 317 kts 171°
2026-05-07 14:46 10.91840 122.39374 8270 ft 320 kts 186°
2026-05-07 14:46 10.89675 122.38842 7865 ft 319 kts 192°
2026-05-07 14:46 10.87547 122.38177 7454 ft 317 kts 193°
2026-05-07 14:46 10.86032 122.37697 7162 ft 315 kts 193°
2026-05-07 14:47 10.83929 122.37059 6758 ft 312 kts 192°
2026-05-07 14:47 10.81845 122.36461 6364 ft 309 kts 192°
2026-05-07 14:47 10.79732 122.35878 5961 ft 307 kts 191°
2026-05-07 14:47 10.77674 122.35320 5564 ft 305 kts 191°
2026-05-07 14:48 10.75615 122.34766 5167 ft 303 kts 191°
2026-05-07 14:48 10.73572 122.34215 4805 ft 299 kts 191°
2026-05-07 14:48 10.71585 122.33677 4684 ft 287 kts 191°
2026-05-07 14:48 10.69663 122.33225 4600 ft 272 kts 184°
2026-05-07 14:49 10.67831 122.33212 4507 ft 252 kts 160°
2026-05-07 14:49 10.66363 122.33983 4389 ft 228 kts 133°
2026-05-07 14:49 10.65408 122.35197 4121 ft 215 kts 116°
2026-05-07 14:49 10.64786 122.36543 3879 ft 205 kts 107°
2026-05-07 14:50 10.64308 122.37875 3696 ft 194 kts 105°
2026-05-07 14:50 10.63877 122.39130 3566 ft 181 kts 103°
2026-05-07 14:50 10.63689 122.40322 3475 ft 163 kts 83°
2026-05-07 14:50 10.64020 122.41371 3409 ft 152 kts 60°
2026-05-07 14:51 10.64653 122.42248 3332 ft 155 kts 46°
2026-05-07 14:51 10.65558 122.42818 3192 ft 153 kts 24°
2026-05-07 14:51 10.66580 122.43153 3055 ft 151 kts 24°
2026-05-07 14:51 10.67581 122.43516 2915 ft 150 kts 25°
2026-05-07 14:52 10.69548 122.44250 2683 ft 144 kts 25°
2026-05-07 14:52 10.70491 122.44597 2518 ft 139 kts 25°
2026-05-07 14:52 10.71383 122.44927 2378 ft 134 kts 25°
2026-05-07 14:53 10.72263 122.45255 2237 ft 132 kts 25°
2026-05-07 14:53 10.73144 122.45582 2019 ft 133 kts 24°
2026-05-07 14:53 10.74019 122.45898 1835 ft 131 kts 24°
2026-05-07 14:53 10.74884 122.46220 1669 ft 132 kts 25°
2026-05-07 14:54 10.75748 122.46544 1487 ft 133 kts 24°
2026-05-07 14:54 10.76626 122.46869 1309 ft 132 kts 24°
2026-05-07 14:54 10.77493 122.47189 1133 ft 132 kts 24°
2026-05-07 14:54 10.78369 122.47513 960 ft 134 kts 24°
2026-05-07 14:55 10.79244 122.47836 772 ft 132 kts 24°
2026-05-07 14:55 10.80129 122.48161 599 ft 133 kts 23°
2026-05-07 14:55 10.81004 122.48481 456 ft 132 kts 22°
2026-05-07 14:55 10.81891 122.48807 301 ft 133 kts 23°
2026-05-07 14:56 10.82758 122.49131 191 ft 126 kts 22°
2026-05-07 14:56 10.83450 122.49397 176 ft 71 kts 22°
2026-05-07 14:56 10.83751 122.49509 176 ft 27 kts 19°
2026-05-07 14:56 10.83887 122.49558 176 ft 17 kts 20°
2026-05-07 14:57 10.83989 122.49595 176 ft 13 kts 19°
2026-05-07 14:57 10.84075 122.49628 176 ft 12 kts 20°
2026-05-07 14:57 10.84155 122.49657 176 ft 11 kts 18°
2026-05-07 14:57 10.84232 122.49684 176 ft 12 kts 21°
2026-05-07 14:58 10.84303 122.49730 176 ft 9 kts 18°
2026-05-07 14:58 10.84326 122.49717 176 ft 3 kts 252°
2026-05-07 14:58 10.84294 122.49693 176 ft 7 kts 199°
2026-05-07 14:58 10.84229 122.49674 176 ft 11 kts 195°
2026-05-07 14:59 10.84137 122.49644 176 ft 15 kts 200°
2026-05-07 14:59 10.84021 122.49602 176 ft 19 kts 200°
2026-05-07 14:59 10.83895 122.49554 176 ft 18 kts 200°
2026-05-07 14:59 10.83765 122.49507 176 ft 18 kts 200°
2026-05-07 15:00 10.83651 122.49466 176 ft 15 kts 199°
2026-05-07 15:00 10.83579 122.49458 176 ft 9 kts 158°
2026-05-07 15:00 10.83541 122.49519 176 ft 12 kts 110°
2026-05-07 15:00 10.83508 122.49615 176 ft 15 kts 111°
2026-05-07 15:01 10.83439 122.49675 176 ft 13 kts 187°
2026-05-07 15:01 10.83346 122.49644 176 ft 14 kts 198°
2026-05-07 15:01 10.83259 122.49613 176 ft 11 kts 200°
2026-05-07 15:01 10.83201 122.49595 176 ft 7 kts 174°
2026-05-07 15:02 10.83178 122.49622 176 ft 5 kts 110°
2026-05-07 15:02 10.83168 122.49651 176 ft 3 kts 111°
2026-05-07 15:02 10.83164 122.49661 176 ft 0 kts 110°